• In Hungary
  • List of Countries
  • For 7 days
  • Water Temperature
  • Satellite Maps
  • Weather Map
  • News
  • Weather Widgets
  • user-avatar
    Login

    Hourly Weather Barisal

    Today, 22 January, Monday

    Time Temperature Precipitation Wind Pressure Humidity
    00:00 +19°C° 0 mm 2 mps 758 mmHg 40%
    01:00 +19°C° 0 mm 2 mps 758 mmHg 41%
    02:00 +19°C° 0 mm 2 mps 758 mmHg 42%
    03:00 +18°C° 0 mm 3 mps 758 mmHg 43%
    04:00 +18°C° 0 mm 3 mps 758 mmHg 45%
    05:00 +17°C° 0 mm 3 mps 758 mmHg 46%
    06:00 +16°C° 0 mm 3 mps 758 mmHg 50%
    07:00 +18°C° 0 mm 3 mps 758 mmHg 46%
    08:00 +20°C° 0 mm 3 mps 759 mmHg 43%
    09:00 +21°C° 0 mm 3 mps 759 mmHg 40%
    10:00 +24°C° 0 mm 3 mps 759 mmHg 35%
    11:00 +26°C° 0 mm 3 mps 759 mmHg 31%
    12:00 +27°C° 0 mm 3 mps 759 mmHg 26%
    13:00 +28°C° 0 mm 2 mps 758 mmHg 24%
    14:00 +28°C° 0 mm 2 mps 758 mmHg 22%
    15:00 +29°C° 0 mm 2 mps 757 mmHg 21%
    16:00 +28°C° 0 mm 2 mps 757 mmHg 22%
    17:00 +26°C° 0 mm 2 mps 757 mmHg 24%
    18:00 +24°C° 0 mm 2 mps 757 mmHg 26%
    19:00 +23°C° 0 mm 2 mps 757 mmHg 27%
    20:00 +21°C° 0 mm 2 mps 757 mmHg 28%
    21:00 +21°C° 0 mm 2 mps 758 mmHg 29%
    22:00 +20°C° 0 mm 2 mps 758 mmHg 30%
    23:00 +19°C° 0 mm 2 mps 758 mmHg 31%

    Tomorrow, 23 January, Tuesday

    Time Temperature Precipitation Wind Pressure Humidity
    00:00 +19°C° 0 mm 2 mps 758 mmHg 32%
    01:00 +18°C° 0 mm 2 mps 758 mmHg 33%
    02:00 +18°C° 0 mm 2 mps 758 mmHg 33%
    03:00 +17°C° 0 mm 2 mps 758 mmHg 34%
    04:00 +17°C° 0 mm 2 mps 758 mmHg 35%
    05:00 +17°C° 0 mm 2 mps 758 mmHg 37%
    06:00 +16°C° 0 mm 2 mps 758 mmHg 38%
    07:00 +18°C° 0 mm 2 mps 758 mmHg 36%
    08:00 +20°C° 0 mm 2 mps 759 mmHg 35%
    09:00 +21°C° 0 mm 2 mps 759 mmHg 33%
    10:00 +24°C° 0 mm 2 mps 759 mmHg 30%
    11:00 +26°C° 0 mm 2 mps 759 mmHg 27%
    12:00 +28°C° 0 mm 2 mps 758 mmHg 24%
    13:00 +28°C° 0 mm 2 mps 758 mmHg 23%
    14:00 +29°C° 0 mm 2 mps 757 mmHg 22%
    15:00 +30°C° 0 mm 2 mps 756 mmHg 20%
    16:00 +28°C° 0 mm 2 mps 756 mmHg 23%
    17:00 +26°C° 0 mm 1 mps 756 mmHg 25%
    18:00 +25°C° 0 mm 1 mps 756 mmHg 28%
    19:00 +24°C° 0 mm 1 mps 756 mmHg 30%
    20:00 +23°C° 0 mm 1 mps 757 mmHg 32%
    21:00 +22°C° 0 mm 1 mps 757 mmHg 34%
    22:00 +21°C° 0 mm 1 mps 757 mmHg 37%
    23:00 +21°C° 0 mm 1 mps 757 mmHg 39%

    Day after tomorrow, 24 January, Wednesday

    Time Temperature Precipitation Wind Pressure Humidity
    00:00 +20°C° 0 mm 1 mps 757 mmHg 41%
    01:00 +20°C° 0 mm 1 mps 757 mmHg 41%
    02:00 +19°C° 0 mm 1 mps 756 mmHg 41%
    03:00 +19°C° 0 mm 1 mps 756 mmHg 41%
    04:00 +19°C° 0 mm 1 mps 756 mmHg 41%
    05:00 +19°C° 0 mm 1 mps 756 mmHg 41%
    06:00 +18°C° 0 mm 1 mps 756 mmHg 41%
    07:00 +20°C° 0 mm 1 mps 757 mmHg 38%
    08:00 +22°C° 0 mm 1 mps 757 mmHg 36%
    09:00 +24°C° 0 mm 1 mps 758 mmHg 33%
    10:00 +26°C° 0 mm 1 mps 758 mmHg 30%
    11:00 +26°C° 0 mm 0 mps 757 mmHg 26%
    12:00 +28°C° 0 mm 0 mps 757 mmHg 23%
    13:00 +30°C° 0 mm 1 mps 756 mmHg 22%
    14:00 +31°C° 0 mm 1 mps 756 mmHg 21%
    15:00 +31°C° 0 mm 1 mps 755 mmHg 20%
    16:00 +30°C° 0 mm 2 mps 755 mmHg 24%
    17:00 +28°C° 0 mm 2 mps 755 mmHg 27%
    18:00 +27°C° 0 mm 3 mps 755 mmHg 31%
    19:00 +25°C° 0 mm 3 mps 755 mmHg 39%
    20:00 +24°C° 0 mm 3 mps 756 mmHg 47%
    21:00 +22°C° 0 mm 3 mps 756 mmHg 55%
    22:00 +23°C° 0 mm 2 mps 756 mmHg 59%
    23:00 +21°C° 0 mm 2 mps 756 mmHg 63%

    25 January, Thursday

    Time Temperature Precipitation Wind Pressure Humidity
    00:00 +21°C° 0 mm 2 mps 756 mmHg 66%
    01:00 +21°C° 0 mm 2 mps 756 mmHg 68%
    02:00 +20°C° 0 mm 2 mps 756 mmHg 71%
    03:00 +20°C° 0 mm 2 mps 755 mmHg 73%
    04:00 +20°C° 0 mm 2 mps 755 mmHg 75%
    05:00 +20°C° 0 mm 2 mps 756 mmHg 77%
    06:00 +20°C° 0 mm 2 mps 756 mmHg 79%
    07:00 +21°C° 0 mm 2 mps 757 mmHg 70%
    08:00 +23°C° 0 mm 2 mps 757 mmHg 60%
    09:00 +25°C° 0 mm 2 mps 758 mmHg 50%
    10:00 +26°C° 0 mm 2 mps 758 mmHg 45%
    11:00 +28°C° 0 mm 2 mps 757 mmHg 40%
    12:00 +29°C° 0 mm 2 mps 757 mmHg 35%
    13:00 +30°C° 0 mm 2 mps 756 mmHg 32%
    14:00 +30°C° 0 mm 2 mps 756 mmHg 30%
    15:00 +31°C° 0 mm 2 mps 755 mmHg 28%
    16:00 +30°C° 0 mm 2 mps 755 mmHg 31%
    17:00 +28°C° 0 mm 2 mps 755 mmHg 33%
    18:00 +27°C° 0 mm 2 mps 755 mmHg 35%
    19:00 +26°C° 0 mm 2 mps 756 mmHg 38%
    20:00 +25°C° 0 mm 2 mps 756 mmHg 40%
    21:00 +24°C° 0 mm 2 mps 757 mmHg 42%
    22:00 +23°C° 0 mm 2 mps 757 mmHg 42%
    23:00 +22°C° 0 mm 3 mps 757 mmHg 41%

    26 January, Friday

    Time Temperature Precipitation Wind Pressure Humidity
    00:00 +21°C° 0 mm 3 mps 756 mmHg 41%
    01:00 +20°C° 0 mm 3 mps 756 mmHg 43%
    02:00 +20°C° 0 mm 3 mps 756 mmHg 44%
    03:00 +20°C° 0 mm 3 mps 756 mmHg 46%
    04:00 +19°C° 0 mm 3 mps 756 mmHg 49%
    05:00 +19°C° 0 mm 3 mps 756 mmHg 51%
    06:00 +18°C° 0 mm 3 mps 757 mmHg 53%
    07:00 +20°C° 0 mm 3 mps 757 mmHg 51%
    08:00 +21°C° 0 mm 3 mps 758 mmHg 48%
    09:00 +24°C° 0 mm 3 mps 759 mmHg 45%
    10:00 +26°C° 0 mm 3 mps 759 mmHg 40%
    11:00 +27°C° 0 mm 3 mps 758 mmHg 35%
    12:00 +29°C° 0 mm 3 mps 758 mmHg 30%
    13:00 +29°C° 0 mm 3 mps 757 mmHg 28%
    14:00 +30°C° 0 mm 3 mps 756 mmHg 26%
    15:00 +30°C° 0 mm 4 mps 756 mmHg 24%
    16:00 +29°C° 0 mm 3 mps 756 mmHg 27%
    17:00 +27°C° 0 mm 3 mps 756 mmHg 30%
    18:00 +26°C° 0 mm 2 mps 756 mmHg 33%
    19:00 +25°C° 0 mm 2 mps 756 mmHg 35%
    20:00 +24°C° 0 mm 2 mps 757 mmHg 37%
    21:00 +23°C° 0 mm 2 mps 757 mmHg 38%
    22:00 +22°C° 0 mm 3 mps 757 mmHg 40%
    23:00 +21°C° 0 mm 3 mps 757 mmHg 41%

    27 January, Saturday

    Time Temperature Precipitation Wind Pressure Humidity
    00:00 +20°C° 0 mm 3 mps 757 mmHg 43%
    01:00 +20°C° 0 mm 3 mps 757 mmHg 45%
    02:00 +20°C° 0 mm 3 mps 757 mmHg 46%
    03:00 +19°C° 0 mm 3 mps 757 mmHg 48%
    04:00 +19°C° 0 mm 3 mps 757 mmHg 51%
    05:00 +18°C° 0 mm 3 mps 757 mmHg 53%
    06:00 +18°C° 0 mm 3 mps 757 mmHg 56%
    07:00 +19°C° 0 mm 3 mps 758 mmHg 53%
    08:00 +21°C° 0 mm 3 mps 759 mmHg 49%
    09:00 +22°C° 0 mm 3 mps 759 mmHg 46%
    10:00 +25°C° 0 mm 3 mps 759 mmHg 40%
    11:00 +27°C° 0 mm 3 mps 759 mmHg 34%
    12:00 +29°C° 0 mm 3 mps 758 mmHg 28%
    13:00 +29°C° 0 mm 4 mps 758 mmHg 26%
    14:00 +30°C° 0 mm 4 mps 757 mmHg 24%
    15:00 +30°C° 0 mm 4 mps 756 mmHg 22%
    16:00 +28°C° 0 mm 4 mps 756 mmHg 24%
    17:00 +27°C° 0 mm 3 mps 756 mmHg 25%
    18:00 +25°C° 0 mm 3 mps 756 mmHg 27%
    19:00 +24°C° 0 mm 3 mps 757 mmHg 28%
    20:00 +23°C° 0 mm 2 mps 757 mmHg 29%
    21:00 +21°C° 0 mm 2 mps 758 mmHg 30%
    22:00 +21°C° 0 mm 2 mps 758 mmHg 31%
    23:00 +20°C° 0 mm 2 mps 758 mmHg 32%
    Show more